Flag for Canada Weather past 2 weeks in Saanich, British Columbia, Canada

Now
54 °F

Broken clouds.


Feels Like: 52 °F
Forecast: 43 / 52 °F
Wind: 7 mph from Southeast

Location: Victoria Int. Airportb. C.

Current Time: Apr 25, 2015 at 4:40:08 PM

Latest Report: Apr 25, 2015 at 4:00 PM


Visibility: 30 mi

Pressure: 30.02 "Hg

Humidity: 67%

Dew point: 43 °F

Location of SaanichLocation

Historic Weather in Saanich — Graph

°F

Saanich temperature yesterday

Maximum temperature yesterday: 52 °F (at 2:00 PM)
Minimum temperature yesterday: 37 °F (at 6:00 AM)
Average temperature yesterday: 45 °F

Past Weeks' High & Low Weather Summary

 TemperatureHumidityPressure
High66 °F (Apr 20, 4:00 PM)100% (Apr 11, 1:00 AM)30.53 "Hg (Apr 11, 1:00 AM)
Low36 °F (Apr 12, 7:00 AM)41% (Apr 22, 2:00 PM)29.71 "Hg (Apr 24, 5:00 AM)
Average48 °F74%30.08 "Hg
* Reported Apr 10 3:00 PM — Apr 25 3:00 PM, Saanich, Weather by CustomWeather, © 2015

Note: Actual official high and low records may vary slightly from our data, if they occured in-between our weather recording intervals... More about our weather records

Advertising

Saanich weather history for previous 24 hours

 ConditionsComfort  
Time TempWeatherWind HumidityBarometerVisibility
3:00 PM
Sat, Apr 25
52 °FPartly sunny.10 mph58%30.02 "Hg30 mi
2:00 PM52 °FScattered clouds.6 mph67%30.01 "Hg30 mi
1:00 PM52 °FPartly sunny.8 mph67%30.00 "Hg30 mi
12:00 PM52 °FBroken clouds.7 mph67%30.00 "Hg20 mi
11:00 AM46 °FPartly sunny.6 mph82%30.00 "Hg15 mi
10:00 AM46 °FBroken clouds.9 mph82%29.98 "Hg15 mi
9:00 AM45 °FPartly sunny.12 mph87%29.96 "Hg15 mi
8:00 AM43 °FBroken clouds.10 mph93%29.95 "Hg12 mi
7:00 AM43 °FPassing clouds.7 mph93%29.93 "Hg12 mi
6:49 AM41 °FPassing clouds.5 mph100%29.93 "Hg12 mi
6:00 AM41 °FLight rain. Mostly cloudy.3 mph100%29.92 "Hg8 mi
5:00 AM41 °FLight rain. Partly cloudy.No wind93%29.91 "Hg12 mi
4:00 AM43 °FLight rain. Mostly cloudy.6 mph93%29.90 "Hg15 mi
3:48 AM43 °FLight rain. Mostly cloudy.6 mph87%29.90 "Hg20 mi
3:00 AM41 °FOvercast.5 mph93%29.89 "Hg30 mi
2:00 AM37 °FPartly cloudy.6 mph100%29.88 "Hg30 mi
1:00 AM37 °FPassing clouds.3 mph100%29.88 "Hg30 mi
12:00 AM39 °FPartly cloudy.3 mph93%29.88 "Hg30 mi
11:00 PM
Fri, Apr 24
41 °FPassing clouds.2 mph87%29.87 "Hg30 mi
10:00 PM43 °FPassing clouds.6 mph87%29.85 "Hg30 mi
9:00 PM43 °FScattered clouds.5 mph81%29.85 "Hg30 mi
8:00 PM46 °FScattered clouds.14 mph76%29.84 "Hg30 mi
7:00 PM52 °FBroken clouds.12 mph58%29.82 "Hg30 mi
6:00 PM50 °FBroken clouds.9 mph67%29.80 "Hg30 mi
4:00 PM52 °FBroken clouds.18 mph62%29.79 "Hg20 mi
Weather by CustomWeather, © 2015

See weather overviewHow to use our weather pages